الصفحة الرئيسية
METAR-TAF:

METAR-TAF

مطار :

Coonamble, أستراليا

دائرة عرض: 30-59-00S, خط طول: 148-22-30E, ارتفاع: 184 متر

مراقبة الطقس الحالي

تاريخ ووقت الإصدار 28 دقيقة قبل الساعة 20:00UTC
رياح هادئة
درجة الحرارة 7°درجة مئوية
الرطوبة 93%
ضغط 1021 hPa

METAR: YCNM 172000Z AUTO 00000KT //// // ////// 07/06 Q1021

زمن: 06:28 (20:28 UTC)


TAF: مفقودة

أرصاد الطقس والتوقعات من أكثر من 4000 مطار (تقارير الطقس للمطار METAR والتنبؤ بالطقس بالمطارTAF).

المحطات المتاحة هي النقط الصفراء والحمراء على الخريطة.

حرك المؤشر فوق النقطة لمعرفة اسم المحطة.

ثم انقر لمعرفة أرصاد وتوقعات الطقس.

لتغيير الخارطة: اضغط على الأزرار الخضراء مع رمز الصليب الأسود للتكبير. على الزر الأخضر مع شرطة للتصغير، أو على الأسهم الخضراء للخرائط المجاورة.


METAR-TAF: